Regional Weather Roundup
Issued by NWS

Home | Current Version | Previous Version | Graphics & Text | Print | Product List | Glossary On
Versions: 1 2 3 4 5 6 7 8 9 10 11 12 13 14 15 16 17 18 19 20 21 22 23 24 25 26 27 28 29 30 31 32 33 34 35 36 37 38 39 40 41 42 43 44 45 46 47 48 49 50
000
ASUS44 KMEG 211500
RWRTN
TENNESSEE HOURLY STATE WEATHER ROUNDUP
NATIONAL WEATHER SERVICE MEMPHIS TN
1000 AM CDT SAT APR 21 2018

TNZ002-004-019-021-049-052-054-088>092-211600-
WEST TENNESSEE

CITY           SKY/WX    TMP DP  RH WIND       PRES   REMARKS
MEMPHIS INTL   FAIR      65  40  39 SE10      30.25S
NWS MEMPHIS      N/A     65 N/A N/A MISG        N/A
JACKSON        FAIR      63  35  35 VRB6      30.29S
DYERSBURG      FAIR      64  39  39 VRB6      30.29S
$$

TNZ008-025-027-028-033-062-065-066-211600-
NORTH MIDDLE TENNESSEE

CITY           SKY/WX    TMP DP  RH WIND       PRES   REMARKS
NASHVILLE      FAIR      62  33  33 CALM      30.34R
CLARKSVILLE    FAIR      58  31  35 CALM      30.33S
SMYRNA         FAIR      60  36  40 SE6       30.34S
CROSSVILLE     FAIR      60  29  30 S9        30.34F
$$

TNZ061-075-076-078-094-096-097-211600-
SOUTH MIDDLE TENNESSEE

CITY           SKY/WX    TMP DP  RH WIND       PRES   REMARKS
$$

TNZ017-018-042-046-047-211600-
NORTHEAST TENNESSEE

CITY           SKY/WX    TMP DP  RH WIND       PRES   REMARKS
TRI CITIES     FAIR      59  28  30 E5        30.38S
$$

TNZ012-013-036-069-073-074-211600-
CENTRAL EAST TENNESSEE

CITY           SKY/WX    TMP DP  RH WIND       PRES   REMARKS
KNOXVILLE      FAIR      58  33  39 VRB3      30.35S
OAK RIDGE      FAIR      60  31  33 CALM      30.37S
$$

TNZ083-085-099-211600-
SOUTHEAST TENNESSEE

CITY           SKY/WX    TMP DP  RH WIND       PRES   REMARKS
CHATTANOOGA    FAIR      61  34  36 VRB3      30.35F
$$

SKY/WX REPORTED AS FAIR MEANS FEW OR NO CLOUDS BELOW
12 THOUSAND FEET.





USA.gov is the U.S. government's official web portal to all federal, state and local government web resources and services.